FW9555 Weather Reports


Display with metric or nautical units.
time (UTC)temp
F
wind
direction
speed
MPH
gust
MPH
rain 1hr
in
rain 24hr
in
rain mn
in
humidity
%
barometer
mb
20260504011854 53 35 0.0 0.0 0.00 0.00 0.00 70 1019.1
20260504011350 53 35 0.0 0.0 0.00 0.00 0.00 67 1019.1
20260504010846 54 35 0.0 0.0 0.00 0.00 0.00 66 1019.0
20260504010342 54 35 0.0 0.0 0.00 0.00 0.00 66 1019.0
20260504005839 55 0 0.0 0.0 0.00 0.00 0.00 66 1018.8
20260504005336 55 0 0.0 0.0 0.00 0.00 0.00 64 1019.1
20260504004833 55 0 0.0 0.0 0.00 0.00 0.00 61 1018.9
20260504004331 56 0 0.0 0.0 0.00 0.00 0.00 61 1018.8
20260504003827 56 0 0.0 0.0 0.00 0.00 0.00 59 1019.0
20260504003324 57 0 0.0 0.0 0.00 0.00 0.00 58 1018.8
20260504002821 58 0 0.0 0.0 0.00 0.00 0.00 58 1018.9
20260504002318 59 0 0.0 0.0 0.00 0.00 0.00 57 1018.7
20260504001815 59 0 0.0 0.0 0.00 0.00 0.00 57 1018.6
20260504001313 60 0 0.0 0.0 0.00 0.00 0.00 54 1018.7
20260504000809 61 0 0.0 0.0 0.00 0.00 0.00 52 1018.9
20260504000306 62 279 0.0 0.0 0.00 0.00 0.00 50 1018.4
20260503235804 64 279 0.0 0.0 0.00 0.00 0.00 49 1018.7
20260503235301 66 279 0.0 0.0 0.00 0.00 0.00 45 1018.5
20260503234759 69 279 0.0 0.0 0.00 0.00 0.00 41 1018.5
20260503234257 70 279 0.0 0.0 0.00 0.00 0.00 40 1018.3
20260503233754 72 286 0.0 0.0 0.00 0.00 0.00 39 1018.7
20260503233249 73 286 0.0 0.0 0.00 0.00 0.00 39 1018.4
20260503232747 75 286 0.0 0.0 0.00 0.00 0.00 36 1018.4
20260503232244 75 286 0.0 1.0 0.00 0.00 0.00 34 1018.5
20260503231742 76 294 0.0 1.0 0.00 0.00 0.00 35 1018.3
20260503231239 76 23 0.0 0.0 0.00 0.00 0.00 35 1018.3
20260503230734 75 345 1.0 2.0 0.00 0.00 0.00 34 1018.4
20260503230232 75 286 0.0 1.0 0.00 0.00 0.00 32 1018.4
20260503225729 76 354 0.0 0.0 0.00 0.00 0.00 37 1018.2
20260503225229 74 0 0.0 1.0 0.00 0.00 0.00 36 1018.5
20260503224726 73 60 0.0 2.0 0.00 0.00 0.00 33 1018.4
20260503224224 74 26 1.0 2.0 0.00 0.00 0.00 30 1018.6
20260503223722 74 270 0.0 1.0 0.00 0.00 0.00 38 1018.8
20260503223219 71 270 2.0 3.0 0.00 0.00 0.00 34 1018.6
20260503222715 72 338 3.0 5.0 0.00 0.00 0.00 33 1018.7
20260503222213 73 74 0.0 2.0 0.00 0.00 0.00 35 1018.8
20260503221712 72 60 0.0 3.0 0.00 0.00 0.00 37 1018.9
20260503221209 71 294 2.0 4.0 0.00 0.00 0.00 34 1018.9
20260503220705 71 300 0.0 4.0 0.00 0.00 0.00 36 1018.7
20260503220202 71 234 0.0 8.0 0.00 0.00 0.00 36 1018.8
20260503215659 72 297 2.0 3.0 0.00 0.00 0.00 35 1018.8
20260503215155 74 285 1.0 1.0 0.00 0.00 0.00 38 1018.9
20260503214654 72 103 0.0 2.0 0.00 0.00 0.00 35 1019.1
20260503214149 72 12 6.0 6.0 0.00 0.00 0.00 35 1019.1
20260503213643 72 38 2.0 7.0 0.00 0.00 0.00 31 1019.0
20260503213140 75 81 0.0 0.0 0.00 0.00 0.00 36 1019.2
20260503212637 72 28 2.0 2.0 0.00 0.00 0.00 36 1019.3
20260503212134 72 99 0.0 3.0 0.00 0.00 0.00 39 1019.1
20260503211632 72 334 5.0 5.0 0.00 0.00 0.00 33 1019.3
20260503211127 70 0 2.0 7.0 0.00 0.00 0.00 36 1019.6
20260503210624 70 332 4.0 6.0 0.00 0.00 0.00 33 1019.4
20260503210121 69 322 4.0 5.0 0.00 0.00 0.00 33 1019.3
20260503205616 71 253 3.0 3.0 0.00 0.00 0.00 35 1019.4
20260503205113 72 26 0.0 3.0 0.00 0.00 0.00 35 1019.5
20260503204610 72 337 0.0 1.0 0.00 0.00 0.00 31 1019.6
20260503204107 70 9 2.0 7.0 0.00 0.00 0.00 34 1019.6
20260503203604 69 342 3.0 11.0 0.00 0.00 0.00 35 1020.0
20260503203101 71 278 2.0 5.0 0.00 0.00 0.00 38 1019.5
20260503202559 71 285 3.0 5.0 0.00 0.00 0.00 34 1019.8
20260503202057 72 0 0.0 2.0 0.00 0.00 0.00 36 1020.0
20260503201555 70 353 0.0 7.0 0.00 0.00 0.00 36 1019.7
20260503201052 69 0 2.0 5.0 0.00 0.00 0.00 35 1020.1
20260503200548 70 337 0.0 4.0 0.00 0.00 0.00 44 1020.1
20260503200044 71 270 1.0 5.0 0.00 0.00 0.00 36 1020.1
20260503195542 72 346 0.0 6.0 0.00 0.00 0.00 38 1020.3
20260503195038 73 311 2.0 2.0 0.00 0.00 0.00 37 1020.1
20260503194536 70 90 0.0 4.0 0.00 0.00 0.00 40 1020.1
20260503194035 69 250 2.0 7.0 0.00 0.00 0.00 35 1020.1
20260503193532 69 264 1.0 5.0 0.00 0.00 0.00 34 1020.6
20260503193027 69 79 0.0 2.0 0.00 0.00 0.00 39 1020.5
20260503192524 69 277 3.0 6.0 0.00 0.00 0.00 38 1020.7
20260503192020 67 38 3.0 3.0 0.00 0.00 0.00 36 1020.8
20260503191517 67 103 1.0 7.0 0.00 0.00 0.00 37 1021.0
20260503191014 70 258 4.0 5.0 0.00 0.00 0.00 43 1020.8
20260503190510 70 297 0.0 5.0 0.00 0.00 0.00 39 1021.0
20260503190008 71 277 1.0 2.0 0.00 0.00 0.00 46 1021.2
20260503185504 68 286 2.0 4.0 0.00 0.00 0.00 36 1021.1
20260503185004 68 334 3.0 4.0 0.00 0.00 0.00 38 1021.1
20260503184500 67 291 0.0 6.0 0.00 0.00 0.00 41 1021.2
20260503183956 67 317 4.0 6.0 0.00 0.00 0.00 42 1021.4
20260503183453 66 61 2.0 6.0 0.00 0.00 0.00 40 1021.2
20260503182950 66 348 1.0 11.0 0.00 0.00 0.00 38 1021.6
20260503182449 67 342 3.0 5.0 0.00 0.00 0.00 44 1021.2
20260503181946 68 349 0.0 4.0 0.00 0.00 0.00 42 1021.6
20260503181443 69 254 2.0 4.0 0.00 0.00 0.00 44 1021.5
20260503180939 66 90 1.0 4.0 0.00 0.00 0.00 43 1021.5
20260503180438 66 297 2.0 5.0 0.00 0.00 0.00 42 1021.6
20260503175934 66 276 2.0 5.0 0.00 0.00 0.00 38 1021.7
20260503175432 65 7 1.0 7.0 0.00 0.00 0.00 40 1021.8
20260503174928 65 356 4.0 8.0 0.00 0.00 0.00 41 1022.0
20260503174426 65 288 2.0 3.0 0.00 0.00 0.00 39 1021.9
20260503173926 65 85 2.0 6.0 0.00 0.00 0.00 37 1022.0
20260503173422 65 12 4.0 6.0 0.00 0.00 0.00 44 1022.3
20260503172919 64 151 3.0 7.0 0.00 0.00 0.00 39 1022.3
20260503172417 64 354 1.0 6.0 0.00 0.00 0.00 40 1022.1
20260503171913 65 321 5.0 5.0 0.00 0.00 0.00 45 1022.3
20260503171410 65 354 3.0 6.0 0.00 0.00 0.00 41 1022.3
20260503170907 63 5 0.0 5.0 0.00 0.00 0.00 40 1022.4
20260503170403 64 11 3.0 4.0 0.00 0.00 0.00 41 1022.6
20260503150755 58 90 1.0 4.0 0.00 0.00 0.00 47 1023.5
20260503150251 58 0 2.0 4.0 0.00 0.00 0.00 49 1023.5
20260503140216 55 8 3.0 5.0 0.00 0.00 0.00 51 1023.4
20260503131146 52 60 1.0 5.0 0.00 0.00 0.00 58 1023.4
20260503130643 52 0 1.0 5.0 0.00 0.00 0.00 57 1023.4
20260503130141 52 8 2.0 8.0 0.00 0.00 0.00 58 1023.3
20260503120106 40 66 0.0 1.0 0.00 0.00 0.00 99 1023.1
20260503110533 36 75 0.0 1.0 0.00 0.00 0.00 98 1022.6
20260503090420 37 90 0.0 1.0 0.00 0.00 0.00 96 1020.8
20260503081347 39 74 0.0 0.0 0.00 0.00 0.00 95 1020.4
20260503080843 39 66 0.0 2.0 0.00 0.00 0.00 95 1020.5
20260503080341 39 33 0.0 2.0 0.00 0.00 0.00 95 1020.4
20260503072817 40 45 2.0 2.0 0.00 0.00 0.00 94 1019.9
20260503072314 40 132 0.0 1.0 0.00 0.00 0.00 93 1019.8
20260503071810 41 66 0.0 1.0 0.00 0.00 0.00 93 1019.8
20260503071308 41 68 0.0 2.0 0.00 0.00 0.00 93 1019.7
20260503070803 41 77 0.0 1.0 0.00 0.00 0.00 92 1019.6
20260503070302 42 74 0.0 0.0 0.00 0.00 0.00 91 1019.6
20260503060221 42 77 0.0 2.0 0.00 0.00 0.00 92 1019.4
20260503054708 42 78 1.0 1.0 0.00 0.00 0.00 92 1019.5
20260503054205 42 114 0.0 0.0 0.00 0.00 0.00 91 1019.3
20260503053703 43 90 1.0 2.0 0.00 0.00 0.00 91 1019.6
20260503053201 43 69 0.0 1.0 0.00 0.00 0.00 90 1019.5
20260503052657 43 55 0.0 2.0 0.00 0.00 0.00 90 1019.4
20260503052154 44 85 2.0 2.0 0.00 0.00 0.00 90 1019.2
20260503051649 44 90 0.0 1.0 0.00 0.00 0.00 89 1019.4
20260503051147 44 69 0.0 0.0 0.00 0.00 0.00 88 1019.3
20260503050643 45 69 0.0 2.0 0.00 0.00 0.00 89 1019.4
20260503050140 45 102 0.0 2.0 0.00 0.00 0.00 88 1019.2
20260503045637 46 77 0.0 2.0 0.00 0.00 0.00 87 1019.3
20260503045135 45 41 0.0 3.0 0.00 0.00 0.00 86 1019.4
20260503044631 45 66 0.0 1.0 0.00 0.00 0.00 88 1019.2
20260503044129 45 66 0.0 1.0 0.00 0.00 0.00 88 1019.1
20260503043625 45 165 0.0 0.0 0.00 0.00 0.00 88 1019.0
20260503043122 46 74 0.0 0.0 0.00 0.00 0.00 88 1018.9
20260503042619 46 74 0.0 1.0 0.00 0.00 0.00 87 1019.0
20260503042115 46 98 0.0 0.0 0.00 0.00 0.00 87 1018.8
20260503041612 46 98 0.0 2.0 0.00 0.00 0.00 87 1018.8
20260503041109 47 84 2.0 3.0 0.00 0.00 0.00 86 1018.7
20260503040607 46 151 0.0 0.0 0.00 0.00 0.00 86 1018.9
20260503040104 47 99 0.0 2.0 0.00 0.00 0.00 86 1018.6
20260503035600 47 99 0.0 2.0 0.00 0.02 0.02 85 1018.6
20260503035058 47 66 0.0 1.0 0.00 0.02 0.02 84 1018.8
20260503034555 47 69 0.0 1.0 0.00 0.02 0.02 83 1018.7
20260503034052 48 180 0.0 2.0 0.00 0.02 0.02 83 1018.8
20260503033549 48 90 0.0 1.0 0.00 0.02 0.02 83 1018.5
20260503033047 48 105 0.0 0.0 0.00 0.02 0.02 80 1018.6
20260503032545 49 266 0.0 3.0 0.00 0.02 0.02 73 1018.5
20260503032043 48 68 2.0 3.0 0.00 0.02 0.02 80 1018.6
20260503031540 47 90 1.0 4.0 0.00 0.02 0.02 87 1018.5
20260503031038 46 60 2.0 2.0 0.00 0.02 0.02 89 1018.4
20260503030533 46 40 0.0 2.0 0.00 0.02 0.02 89 1018.4
20260503030031 46 90 0.0 0.0 0.00 0.02 0.02 88 1018.4
20260503025527 46 82 1.0 1.0 0.00 0.02 0.02 88 1018.2
20260503025026 46 255 0.0 2.0 0.00 0.02 0.02 87 1018.5
20260503024521 46 194 0.0 3.0 0.00 0.02 0.02 88 1018.3
20260503024019 47 81 0.0 0.0 0.00 0.02 0.02 88 1018.4
20260503023515 47 0 1.0 3.0 0.00 0.02 0.02 88 1018.1
20260503023013 47 160 0.0 0.0 0.00 0.02 0.02 87 1018.3
20260503022508 48 15 0.0 0.0 0.00 0.02 0.02 87 1018.3
20260503022003 48 15 0.0 0.0 0.00 0.02 0.02 87 1018.1
20260503021500 48 81 0.0 0.0 0.00 0.02 0.02 86 1018.3
20260503020957 48 165 0.0 0.0 0.00 0.02 0.02 86 1017.9
20260503020455 49 77 0.0 3.0 0.00 0.02 0.02 86 1017.9
20260503015951 49 29 0.0 1.0 0.00 0.02 0.02 85 1017.8
20260503015448 49 81 0.0 0.0 0.00 0.02 0.02 84 1017.6
20260503014944 50 60 0.0 1.0 0.00 0.02 0.02 84 1017.5
20260503014441 50 352 0.0 0.0 0.00 0.02 0.02 84 1017.2
20260503013939 50 352 0.0 1.0 0.00 0.02 0.02 84 1017.4
20260503013436 50 352 0.0 0.0 0.00 0.02 0.02 83 1017.4
20260503012933 51 353 1.0 2.0 0.00 0.02 0.02 83 1017.6
20260503012431 51 35 0.0 2.0 0.00 0.02 0.02 82 1017.3
20260503011927 51 18 0.0 0.0 0.00 0.02 0.02 81 1017.1